Change the Weather History Date:

Saturday, June 8, 2013

  Actual Average Record
Temperature  
Mean Temperature 74 °F -  
Max Temperature 84 °F 80 °F 86 °F (1998)
Min Temperature 65 °F 65 °F 64 °F (2005)
Cooling Degree Days 10    
Growing Degree Days 24 (Base 50)    
Moisture  
Dew Point 64 °F    
Average Humidity 74    
Maximum Humidity 95    
Minimum Humidity 45    
Precipitation  
Precipitation 0.00 in 0.33 in - ()
Sea Level Pressure  
Sea Level Pressure 29.93 in    
Wind  
Wind Speed 5 mph ()    
Max Wind Speed 16 mph    
Max Gust Speed 30 mph    
Visibility 7.7 miles    
Events Fog , Rain    
Averages and records for this station are not official NWS values.
T = Trace of Precipitation, MM = Missing Value Source: Averaged Metar Reports

Daily Weather History Graph

Daily Weather History Graph

Search for Another Location

Airport or City:

Trip Planner

Search our weather history database for the weather conditions in past years. The results will help you decide how hot, cold, wet, or windy it might be!

Date:

Astronomy

Jun. 08, 2013 Rise Set
Actual Time 5:15 AM CST 5:56 PM CST
Civil Twilight 4:52 AM CST 6:19 PM CST
Nautical Twilight 4:25 AM CST 6:46 PM CST
Astronomical Twilight 3:57 AM CST 7:14 PM CST
Moon 5:13 AM CST (6/8) 6:07 PM CST (6/8)
Length of Visible Light 13h 27m
Length of Day
12h 41m
New Moon, 0% of the Moon is Illuminated
Jun 8
New Moon
Jun 16
First Quarter
Jun 23
Full
Jun 29
Last Quarter
Jul 8
New

Hourly Weather History & Observations

Time (CST) Temp. Heat Index Dew Point Humidity Pressure Visibility Wind Dir Wind Speed Gust Speed Precip Events Conditions
12:00 AM 69 °F - 68 °F 95% 29.81 in 9 mi Calm Calm - - Fog Patches of Fog
12:00 AM 69.8 °F - 68.0 °F 94% 30.00 in 6.2 mi Calm Calm - N/A Fog Patches of Fog
1:00 AM 68.0 °F - 66.2 °F 94% 29.99 in 6.2 mi East 4.6 mph - N/A   Partly Cloudy
2:00 AM 68.0 °F - 62.6 °F 83% 29.98 in 6.2 mi NE 6.9 mph - N/A   Partly Cloudy
3:00 AM 66 °F - 61 °F 80% 29.81 in 12 mi NE 6.9 mph - -   Scattered Clouds
3:00 AM 66.2 °F - 60.8 °F 83% 29.97 in 6.2 mi NE 6.9 mph - N/A   Partly Cloudy
4:00 AM 68.0 °F - 60.8 °F 78% 29.94 in 6.2 mi NE 10.4 mph - N/A   Partly Cloudy
5:00 AM 68.0 °F - 60.8 °F 78% 29.95 in 6.2 mi ENE 10.4 mph - N/A   Mostly Cloudy
6:00 AM 67 °F - 62 °F 79% 29.85 in 12 mi ENE 5.8 mph - -   Overcast
6:00 AM 68.0 °F - 62.6 °F 83% 29.99 in - ENE 5.8 mph - N/A   Clear
6:30 AM 68.0 °F - 62.6 °F 83% 30.00 in - West 6.9 mph - N/A   Clear
7:00 AM 68.0 °F - 62.6 °F 83% 30.00 in 6.2 mi Calm Calm - N/A Rain Light Rain
8:00 AM 66.2 °F - 62.6 °F 88% 30.01 in 6.2 mi SE 4.6 mph - N/A   Mostly Cloudy
9:00 AM 71 °F - 62 °F 67% 29.84 in 12 mi NE 5.8 mph - -   Overcast
9:00 AM 71.6 °F - 62.6 °F 73% 30.00 in 6.2 mi NE 5.8 mph - N/A   Mostly Cloudy
10:00 AM 77.0 °F - 62.6 °F 61% 29.98 in 6.2 mi East 11.5 mph 25.3 mph N/A   Mostly Cloudy
11:00 AM 78.8 °F - 64.4 °F 61% 29.96 in 6.2 mi East 11.5 mph 23.0 mph N/A   Mostly Cloudy
12:00 PM 82 °F - 65 °F 46% 29.80 in 12 mi ESE 16.1 mph - -   Scattered Clouds
12:00 PM 82.4 °F 83.9 °F 64.4 °F 54% 29.95 in 6.2 mi ESE 16.1 mph 29.9 mph N/A   Mostly Cloudy
1:00 PM 80.6 °F 81.8 °F 62.6 °F 54% 29.94 in 6.2 mi East 12.7 mph 25.3 mph N/A   Mostly Cloudy
2:00 PM 80.6 °F 81.8 °F 62.6 °F 54% 29.93 in 6.2 mi ESE 13.8 mph - N/A   Unknown
3:00 PM 79 °F - 62 °F 45% 29.76 in 12 mi ESE 11.5 mph - -   Scattered Clouds
3:00 PM 78.8 °F - 60.8 °F 54% 29.91 in 6.2 mi ESE 11.5 mph - N/A   Mostly Cloudy
4:00 PM 77.0 °F - 62.6 °F 61% 29.92 in 6.2 mi East 9.2 mph - N/A   Mostly Cloudy
5:00 PM 77.0 °F - 62.6 °F 61% 29.93 in 6.2 mi SSE 3.5 mph - N/A   Mostly Cloudy
6:00 PM 72 °F - 69 °F 88% 29.81 in 9 mi West 6.9 mph - - Fog Light Fog
6:00 PM 71.6 °F - 69.8 °F 94% 29.94 in 6.2 mi West 6.9 mph - N/A   Mostly Cloudy
7:00 PM 71.6 °F - 69.8 °F 94% 29.98 in 6.2 mi Calm Calm - N/A   Mostly Cloudy
8:00 PM 71.6 °F - 68.0 °F 88% 29.99 in - NNW 3.5 mph - N/A   Clear
9:00 PM 70 °F - 62 °F 69% 29.85 in 12 mi ENE 3.5 mph - -   Clear
9:00 PM 69.8 °F - 62.6 °F 78% 29.99 in - ENE 3.5 mph - N/A   Clear
10:00 PM 69.8 °F - 62.6 °F 78% 30.00 in - ENE 3.5 mph - N/A   Clear
11:00 PM 69.8 °F - 60.8 °F 73% 30.01 in - ENE 3.5 mph - N/A   Clear